Weather History for Ithaca, NY

Change the Weather History Date:

Saturday, November 17, 2012

  Actual Average Record
Temperature  
Mean Temperature 34 °F -  
Max Temperature 46 °F 43 °F 69 °F (1990)
Min Temperature 23 °F 28 °F 7 °F (1943)
Degree Days  
Heating Degree Days 30    
Moisture  
Dew Point 27 °F    
Average Humidity 83    
Maximum Humidity 96    
Minimum Humidity 56    
Precipitation  
Precipitation 0.00 in - - ()
Sea Level Pressure  
Sea Level Pressure 30.64 in    
Wind  
Wind Speed 3 mph (ENE)    
Max Wind Speed 6 mph    
Max Gust Speed -    
Visibility 8 miles    
Events      
Averages and records for this station are not official NWS values.
T = Trace of Precipitation, MM = Missing Value Source: NWS Daily Summary

Daily Weather History Graph

Daily Weather History Graph

Search for Another Location

Airport:

Trip Planner

Search our weather history database for the weather conditions in past years. The results will help you decide how hot, cold, wet, or windy it might be!

Date:

Astronomy

Nov. 17, 2012 Rise Set
Actual Time 7:00 AM EST 4:41 PM EST
Civil Twilight 6:29 AM EST 5:11 PM EST
Nautical Twilight 5:55 AM EST 5:46 PM EST
Astronomical Twilight 5:21 AM EST 6:19 PM EST
Moon 10:43 AM EST (11/17) 8:49 PM EST (11/17)
Length of Visible Light 10h 42m
Length of Day
9h 41m
Waxing Crescent, 20% of the Moon is Illuminated
Nov 17
Waxing Crescent
Nov 20
First Quarter
Nov 28
Full
Dec 6
Last Quarter
Dec 13
New

Hourly Weather History & Observations

Time (EST) Temp. Windchill Dew Point Humidity Pressure Visibility Wind Dir Wind Speed Gust Speed Precip Events Conditions
12:56 AM 24.1 °F - 23.0 °F 96% 30.54 in 6.0 mi Calm Calm - N/A   Clear
1:56 AM 23.0 °F 18.4 °F 22.1 °F 96% 30.55 in 5.0 mi ENE 3.5 mph - N/A   Clear
2:56 AM 24.1 °F 18.2 °F 23.0 °F 96% 30.57 in 5.0 mi East 4.6 mph - N/A   Clear
3:56 AM 24.1 °F 18.2 °F 23.0 °F 96% 30.58 in 5.0 mi ENE 4.6 mph - N/A   Clear
4:56 AM 25.2 °F 19.5 °F 24.1 °F 96% 30.60 in 4.0 mi East 4.6 mph - N/A   Clear
5:56 AM 25.2 °F 18.3 °F 24.1 °F 96% 30.62 in 4.0 mi East 5.8 mph - N/A   Clear
6:56 AM 25.2 °F 18.3 °F 24.1 °F 96% 30.64 in 4.0 mi East 5.8 mph - N/A   Clear
7:56 AM 27.1 °F 21.8 °F 26.1 °F 96% 30.66 in 4.0 mi East 4.6 mph - N/A   Clear
8:56 AM 31.1 °F - 29.1 °F 92% 30.67 in 10.0 mi Calm Calm - N/A   Clear
9:56 AM 36.9 °F - 32.0 °F 83% 30.68 in 10.0 mi Calm Calm - N/A   Clear
10:56 AM 43.0 °F - 32.9 °F 68% 30.68 in 10.0 mi Calm Calm - N/A   Partly Cloudy
12:56 PM 45.9 °F 44.6 °F 31.1 °F 56% 30.65 in 10.0 mi WSW 3.5 mph - N/A   Scattered Clouds
1:56 PM 46.9 °F - 32.0 °F 56% 30.63 in 10.0 mi WSW 3.5 mph - N/A   Clear
2:56 PM 45.9 °F 43.6 °F 31.1 °F 56% 30.63 in 10.0 mi NNW 4.6 mph - N/A   Clear
3:56 PM 43.9 °F 41.3 °F 31.1 °F 61% 30.64 in 10.0 mi NW 4.6 mph - N/A   Clear
4:56 PM 38.8 °F - 30.0 °F 71% 30.65 in 10.0 mi Calm Calm - N/A   Clear
5:56 PM 34.0 °F 31.0 °F 29.1 °F 82% 30.66 in 10.0 mi NNE 3.5 mph - N/A   Clear
6:56 PM 31.1 °F 26.4 °F 27.1 °F 85% 30.66 in 10.0 mi East 4.6 mph - N/A   Clear
7:56 PM 32.9 °F 27.5 °F 28.0 °F 82% 30.67 in 10.0 mi ENE 5.8 mph - N/A   Clear
8:56 PM 32.9 °F 27.5 °F 28.0 °F 82% 30.68 in 10.0 mi East 5.8 mph - N/A   Clear
9:56 PM 29.1 °F 25.4 °F 26.1 °F 88% 30.69 in 10.0 mi East 3.5 mph - N/A   Clear
10:56 PM 28.0 °F 22.8 °F 26.1 °F 92% 30.68 in 7.0 mi ENE 4.6 mph - N/A   Clear
11:56 PM 26.1 °F 20.5 °F 24.1 °F 92% 30.67 in 6.0 mi SSE 4.6 mph - N/A   Clear